Location: Bucquoy
(50.1391°N, 2.7097°E)
Time: 23:01:24
(UTC+00:00)

Cosmos 1125 Rocket - Pass Details

Date: 06 May 2021
Orbit: 758 x 779 km, 74.0° (Epoch: 21 June)

Event Time Altitude Azimuth Distance (km) Brightness Sun altitude
Exits shadow 01:24:59 41° 212° (SSW) 1,110 3.8 -19.8°
Maximum altitude 01:26:53 82° 294° (WNW) 780 3.4 -19.7°
Drops below altitude 10° 01:32:08 10° 23° (NNE) 2,306 7.2 -19.3°
Sets 01:34:31 0° 24° (NNE) 3,234 8.4 -19.1°
